loading
|

STARLINK-11266, 60732

Orbit data source: Space-Track

STARLINK-11266, 60732 is a payload satellite owned by SpaceX/Seattle (US) in LEO that was launched on Wed, 28 Aug 2024 UTC via an FALCON 9 launch vehicle from the Air Force Eastern Test Range (AFETR). Payloads include a variety of satellites, spacecraft, and rockets equipped with specific instruments for various scientific and technological missions. These include communications satellites like Starlink; space stations such as the ISS; scientific satellites like the Hubble; Earth observation satellites from companies like Planet Labs, Umbra, and HawkEye 360; GPS; miniature CubeSats for education and research; and military/defense satellites.

Loading next visibility...
Loading greatness...
STARLINK-11266 details
Identifier
60732, 2024-152N
Orbit
LEO
Last TLE update8 hours ago
Origin
Flag of USSpaceX/Seattle (US)
ManufacturerSpaceX/Seattle
Mission statusOperational
MissionUnknown
Bus & MotorSTARLINK V2M, Unknown motor
Mass750 kg wet, ~700 kg dry
Launch date (UTC)
2024-08-28 (3 weeks ago)
Launch vehicle
FALCON 9
Launch site
Air Force Eastern Test Range (AFETR)
Object type
Payload
Rocket body
Debris
Radar Cross SectionLarge (>1 m²)

Expand to show TLE details & history

TLE from 8 hours ago
0 STARLINK-11266
1 60732U 24152N   24261.58335648 -.01080400  00000-0 -78998-2 0  9997
2 60732  53.1479 248.5995 0000773  69.9421 288.4397 15.75090621  4358
Epoch: 2024-09-17T14:00Z
Definitive object data (Epoch: 2024-09-17T14:00:01.999Z)
Latitude-1.39183°
Longitude40.55765°
Altitude345.316 km
Speed7.703 km/s
True Right ascension16h 30m 14s
True Declination-1° 22' 59"
Sunlit
Object was in daylight at TLE epoch
Predictive object data (real-time)
Latitude31.58073°
Longitude67.25013°
Altitude348.031 km
Speed7.705 km/s
Apparent Right ascension21h 52m 29s
Apparent Declination-6° 30' 32"
Sunlit
Object is in daylight
Predictive observer data (real-time)
Local Sidereal Time14:36:32
Azimuth82.691° E
Elevation-18.705°
Doppler factor1
Orbital elements
Apogee345.156 km
Perigee344.117 km
Semi-major axis6,722.774 km
Eccentricity0.0000773
Inclination53.1479°
RAAN248.5995°
Arg. of periapsis69.9421°
True anomaly288.4313°
Mean anomaly288.4397°
Eccentric anomaly288.4355°
Mean motion3.9375 °/min
BSTAR-0.0078998
Period91.43 mins
No data available

STARLINK-11266 Visibility forecast

Observer location: 39.9160978°, -105.1181434

STARLINK-11266 is not visible in the next 10 days
Span
Click to sort rows by Start time (UTC) header in descending order
Start Az.
Max El. time (UTC)
Max El. Az.
Max El.
End time (UTC)
End Az.